Alta, CA

10:08 AM PST on February 19, 2017 (GMT -0800)
Blue Canyon-Nyack

Weather History for KBLU - April, 2013

Change the Weather History Date:

Friday, April 5, 2013

  Actual Average Record
Temperature  
Mean Temperature 42 °F -  
Max Temperature 48 °F 50 °F 70 °F (2007)
Min Temperature 37 °F 36 °F 23 °F (1975)
Degree Days  
Heating Degree Days 22    
Moisture  
Dew Point 39 °F    
Average Humidity 92    
Maximum Humidity 100    
Minimum Humidity 58    
Precipitation  
Precipitation 0.00 in - - ()
Sea Level Pressure  
Sea Level Pressure 30.13 in    
Wind  
Wind Speed 7 mph (South)    
Max Wind Speed 14 mph    
Max Gust Speed 20 mph    
Visibility 4 miles    
Events Fog    
Averages and records for this station are not official NWS values.
T = Trace of Precipitation, MM = Missing Value Source: NWS Daily Summary

Daily Weather History Graph

Daily Weather History Graph

Search for Another Location

Airport or City:

Trip Planner

Search our weather history database for the weather conditions in past years. The results will help you decide how hot, cold, wet, or windy it might be!

Date:

Astronomy

Apr. 05, 2013 Rise Set
Actual Time 6:40 AM PDT 7:30 PM PDT
Civil Twilight 6:13 AM PDT 7:58 PM PDT
Nautical Twilight 5:41 AM PDT 8:30 PM PDT
Astronomical Twilight 5:07 AM PDT 9:03 PM PDT
Moon 3:49 AM PDT (4/5) 3:02 PM PDT (4/5)
Length of Visible Light 13h 44m
Length of Day
12h 50m
Waning Crescent, 22% of the Moon is Illuminated
Apr 5
Waning Crescent
Apr 10
New
Apr 18
First Quarter
Apr 25
Full
May 2
Last Quarter

Hourly Weather History & Observations

Time (PDT) Temp. Windchill Dew Point Humidity Pressure Visibility Wind Dir Wind Speed Gust Speed Precip Events Conditions
12:04 AM 41.0 °F 35.8 °F 41.0 °F 100% 30.14 in 1.8 mi South 8.1 mph - N/A   Overcast
12:11 AM 41.0 °F 35.2 °F 41.0 °F 100% 30.14 in 1.0 mi South 9.2 mph - N/A   Overcast
12:25 AM 41.0 °F 36.4 °F 41.0 °F 100% 30.14 in 0.5 mi South 6.9 mph 16.1 mph N/A Fog Fog
12:38 AM 41.0 °F 35.8 °F 41.0 °F 100% 30.14 in 0.8 mi South 8.1 mph - N/A   Overcast
12:49 AM 41.0 °F 35.2 °F 41.0 °F 100% 30.14 in 0.2 mi South 9.2 mph - N/A Fog Fog
12:52 AM 41.0 °F 34.7 °F 41.0 °F 100% 30.08 in 0.2 mi South 10.4 mph - N/A Fog Fog
1:38 AM 41.0 °F 35.2 °F 41.0 °F 100% 30.13 in 0.5 mi SSE 9.2 mph 17.3 mph N/A Fog Fog
1:52 AM 41.0 °F 35.8 °F 39.9 °F 96% 30.07 in 0.8 mi South 8.1 mph - N/A   Mist
2:29 AM 41.0 °F 35.2 °F 41.0 °F 100% 30.14 in 0.2 mi South 9.2 mph - N/A Fog Fog
2:52 AM 41.0 °F 34.7 °F 39.9 °F 96% 30.07 in 0.2 mi SSE 10.4 mph - N/A Fog Fog
3:10 AM 39.2 °F 33.6 °F 39.2 °F 100% 30.13 in 0.5 mi South 8.1 mph - N/A Fog Fog
3:35 AM 39.2 °F 34.2 °F 39.2 °F 100% 30.13 in 1.5 mi SW 6.9 mph - N/A   Overcast
3:38 AM 39.2 °F 35.0 °F 39.2 °F 100% 30.13 in 3.0 mi Variable 5.8 mph - N/A   Overcast
3:42 AM 39.2 °F 35.9 °F 39.2 °F 100% 30.13 in 1.8 mi SSE 4.6 mph - N/A   Overcast
3:49 AM 39.2 °F 34.2 °F 39.2 °F 100% 30.13 in 1.0 mi South 6.9 mph - N/A   Overcast
3:52 AM 39.9 °F 34.5 °F 39.0 °F 97% 30.08 in 1.8 mi South 8.1 mph - N/A   Overcast
3:59 AM 39.2 °F 33.0 °F 39.2 °F 100% 30.13 in 10.0 mi SSW 9.2 mph - N/A   Overcast
4:06 AM 39.2 °F 34.2 °F 39.2 °F 100% 30.13 in 2.5 mi South 6.9 mph - N/A   Mostly Cloudy
4:09 AM 39.2 °F 34.2 °F 39.2 °F 100% 30.14 in 1.2 mi SSW 6.9 mph - N/A   Overcast
4:20 AM 39.2 °F 35.9 °F 39.2 °F 100% 30.14 in 2.5 mi SSW 4.6 mph - N/A   Mostly Cloudy
4:27 AM 39.2 °F 35.0 °F 39.2 °F 100% 30.14 in 5.0 mi South 5.8 mph - N/A   Overcast
4:34 AM 39.2 °F 33.6 °F 39.2 °F 100% 30.14 in 1.8 mi South 8.1 mph - N/A   Overcast
4:42 AM 39.2 °F 35.0 °F 39.2 °F 100% 30.14 in 1.0 mi South 5.8 mph - N/A   Overcast
4:47 AM 39.2 °F 35.9 °F 39.2 °F 100% 30.14 in 2.5 mi SSW 4.6 mph - N/A   Overcast
4:52 AM 39.0 °F 36.8 °F 39.0 °F 100% 30.09 in 2.0 mi South 3.5 mph - N/A   Overcast
4:59 AM 39.2 °F 35.0 °F 39.2 °F 100% 30.14 in 1.5 mi South 5.8 mph - N/A   Overcast
5:03 AM 39.2 °F 35.0 °F 39.2 °F 100% 30.14 in 3.0 mi South 5.8 mph - N/A   Overcast
5:18 AM 39.2 °F 35.0 °F 37.4 °F 93% 30.14 in 1.5 mi SSE 5.8 mph - N/A   Mostly Cloudy
5:20 AM 39.2 °F 35.0 °F 37.4 °F 93% 30.14 in 0.8 mi South 5.8 mph - N/A   Mostly Cloudy
5:52 AM 39.0 °F 35.7 °F 39.0 °F 100% 30.09 in 1.0 mi SSE 4.6 mph - N/A   Mist
6:08 AM 39.2 °F 37.0 °F 37.4 °F 93% 30.13 in 0.5 mi SSE 3.5 mph - N/A Fog Fog
6:22 AM 37.4 °F 34.9 °F 37.4 °F 100% 30.13 in 0.2 mi Variable 3.5 mph - N/A Fog Fog
6:52 AM 37.0 °F 34.5 °F 37.0 °F 100% 30.09 in 0.8 mi ESE 3.5 mph - N/A   Mist
6:58 AM 37.4 °F 34.9 °F 37.4 °F 100% 30.13 in 1.5 mi ESE 3.5 mph - N/A   Mostly Cloudy
7:01 AM 37.4 °F 34.9 °F 35.6 °F 93% 30.13 in 3.0 mi ESE 3.5 mph - N/A   Scattered Clouds
7:52 AM 39.0 °F - 37.9 °F 96% 30.09 in 10.0 mi Calm Calm - N/A   Clear
8:52 AM 41.0 °F 37.1 °F 37.0 °F 86% 30.10 in 10.0 mi SSE 5.8 mph - N/A   Clear
9:52 AM 43.0 °F 38.8 °F 37.0 °F 80% 30.11 in 10.0 mi Variable 6.9 mph - N/A   Partly Cloudy
10:23 AM 44.6 °F 40.2 °F 35.6 °F 71% 30.16 in 10.0 mi SSE 8.1 mph - N/A   Mostly Cloudy
10:52 AM 44.1 °F 38.6 °F 34.0 °F 68% 30.10 in 10.0 mi South 10.4 mph - N/A   Mostly Cloudy
10:59 AM 44.6 °F 39.2 °F 33.8 °F 66% 30.17 in 10.0 mi South 10.4 mph - N/A   Scattered Clouds
11:52 AM 46.0 °F 41.0 °F 36.0 °F 68% 30.11 in 10.0 mi South 10.4 mph 17.3 mph N/A   Partly Cloudy
12:52 PM 46.9 °F - 34.0 °F 61% 30.11 in 10.0 mi SSW 8.1 mph 17.3 mph N/A   Mostly Cloudy
1:52 PM 48.0 °F - 34.0 °F 58% 30.09 in 10.0 mi South 13.8 mph 19.6 mph N/A   Clear
2:52 PM 46.9 °F - 35.1 °F 63% 30.10 in 10.0 mi South 11.5 mph - N/A   Mostly Cloudy
3:52 PM 46.0 °F 41.0 °F 37.0 °F 71% 30.09 in 10.0 mi South 10.4 mph - N/A   Mostly Cloudy
4:05 PM 46.4 °F 41.9 °F 35.6 °F 66% 30.16 in 10.0 mi South 9.2 mph - N/A   Scattered Clouds
4:52 PM 46.0 °F 41.0 °F 37.0 °F 71% 30.08 in 10.0 mi South 10.4 mph - N/A   Clear
5:52 PM 45.0 °F 40.6 °F 37.9 °F 76% 30.10 in 10.0 mi South 8.1 mph - N/A   Mostly Cloudy
6:05 PM 44.6 °F 41.4 °F 39.2 °F 81% 30.15 in 10.0 mi SSW 5.8 mph - N/A   Mostly Cloudy
6:39 PM 42.8 °F 39.3 °F 37.4 °F 81% 30.15 in 10.0 mi SSW 5.8 mph - N/A   Overcast
6:52 PM 43.0 °F 38.8 °F 37.9 °F 82% 30.11 in 10.0 mi South 6.9 mph - N/A   Overcast
7:12 PM 42.8 °F 38.0 °F 39.2 °F 87% 30.15 in 10.0 mi SSW 8.1 mph - N/A   Overcast
7:20 PM 42.8 °F 39.3 °F 39.2 °F 87% 30.15 in 10.0 mi SSW 5.8 mph - N/A   Overcast
7:34 PM 42.8 °F 40.1 °F 39.2 °F 87% 30.15 in 10.0 mi SSW 4.6 mph - N/A   Overcast
7:52 PM 42.1 °F 37.7 °F 39.9 °F 92% 30.10 in 10.0 mi South 6.9 mph - N/A   Overcast
8:21 PM 41.0 °F 37.1 °F 39.2 °F 93% 30.15 in 10.0 mi South 5.8 mph - N/A   Overcast
8:52 PM 41.0 °F 37.1 °F 39.9 °F 96% 30.12 in 2.5 mi South 5.8 mph - N/A   Overcast
8:56 PM 41.0 °F 38.0 °F 39.2 °F 93% 30.16 in 1.2 mi SSE 4.6 mph - N/A   Overcast
9:06 PM 41.0 °F 39.0 °F 39.2 °F 93% 30.16 in 2.0 mi Variable 3.5 mph - N/A   Overcast
9:14 PM 41.0 °F 36.4 °F 39.2 °F 93% 30.16 in 7.0 mi SSE 6.9 mph - N/A   Overcast
9:52 PM 41.0 °F 38.0 °F 39.9 °F 96% 30.12 in 1.2 mi SSW 4.6 mph - N/A   Overcast
10:02 PM 41.0 °F 36.4 °F 39.2 °F 93% 30.18 in 0.5 mi South 6.9 mph - N/A Fog Fog
10:16 PM 41.0 °F 36.4 °F 39.2 °F 93% 30.17 in 1.0 mi SSE 6.9 mph - N/A   Mist
10:23 PM 41.0 °F 36.4 °F 39.2 °F 93% 30.17 in 0.8 mi SSE 6.9 mph - N/A   Mist
10:36 PM 41.0 °F 37.1 °F 39.2 °F 93% 30.17 in 1.0 mi SSE 5.8 mph - N/A   Mist
10:52 PM 39.9 °F 35.8 °F 39.9 °F 100% 30.12 in 1.0 mi SSE 5.8 mph - N/A   Mist
10:57 PM 39.2 °F 35.0 °F 39.2 °F 100% 30.17 in 2.0 mi SSE 5.8 mph - N/A   Overcast
11:08 PM 39.2 °F 35.9 °F 39.2 °F 100% 30.17 in 1.8 mi Variable 4.6 mph - N/A   Overcast
11:11 PM 39.2 °F 35.0 °F 39.2 °F 100% 30.17 in 3.0 mi SE 5.8 mph - N/A   Overcast
11:15 PM 39.2 °F 35.9 °F 39.2 °F 100% 30.17 in 1.8 mi SSE 4.6 mph - N/A   Overcast
11:30 PM 39.2 °F 35.9 °F 39.2 °F 100% 30.17 in 1.2 mi SSE 4.6 mph - N/A   Overcast
11:35 PM 41.0 °F 37.1 °F 39.2 °F 93% 30.17 in 0.5 mi South 5.8 mph - N/A Fog Fog
11:45 PM 39.2 °F 35.0 °F 39.2 °F 100% 30.17 in 0.5 mi South 5.8 mph - N/A Fog Fog
11:52 PM 39.9 °F 35.1 °F 39.0 °F 97% 30.11 in 0.8 mi South 6.9 mph - N/A   Overcast
11:55 PM 39.2 °F 35.9 °F 39.2 °F 100% 30.17 in 1.8 mi South 4.6 mph - N/A   Overcast
11:57 PM 39.2 °F 35.0 °F 39.2 °F 100% 30.18 in 3.0 mi South 5.8 mph - N/A   Overcast